Flag for Austria Weather past 2 weeks in Traun, Upper Austria, Austria

Now
63 °F

Light rain. Broken clouds.


Feels Like: 63 °F
Forecast: 62 / 77 °F
Wind: 8 mph from Southwest

Location: Linz / Hoersching-Flughafen

Current Time: Jul 22, 2014 at 9:44:29 AM

Latest Report: Jul 22, 2014 at 8:50 AM


Visibility: N/A

Pressure: 29.86 "Hg

Humidity: 94%

Dew point: 61 °F

Location of TraunLocation

Historic Weather in Traun — Graph

°F

Traun temperature yesterday

Maximum temperature yesterday: 73 °F (at 11:20 AM)
Minimum temperature yesterday: 63 °F (at 4:20 AM)
Average temperature yesterday: 68 °F

Past Weeks' High & Low Weather Summary

 TemperatureHumidityPressure
High95 °F (Jul 20, 4:50 PM)100% (Jul 14, 4:20 AM)30.18 "Hg (Jul 14, 4:20 AM)
Low52 °F (Jul 10, 1:50 AM)23% (Jul 20, 4:50 PM)29.65 "Hg (Jul 8, 2:50 PM)
Average68 °F73%29.94 "Hg
* Reported Jul 7 8:20 AM — Jul 22 8:20 AM, Traun, Weather by CustomWeather, © 2014

Note: Actual official high and low records may vary slightly from our data, if they occured in-between our weather recording intervals... More about our weather records

Advertising

Traun weather history for previous 24 hours

 ConditionsComfort  
Time TempWeatherWind HumidityBarometerVisibility
8:20 AM
Jul 22
63 °FLight rain. Partly sunny.6 mph94%29.86 "Hg4 mi
7:50 AM63 °FRain. Broken clouds.6 mph94%29.86 "Hg4 mi
7:20 AM63 °FRain. Partly sunny.6 mph94%29.86 "Hg4 mi
6:50 AM63 °FRain. Partly sunny.5 mph94%29.86 "Hg2 mi
6:20 AM63 °FRain. Passing clouds.3 mph94%29.86 "Hg5 mi
5:50 AM63 °FRain. Passing clouds.6 mph94%29.83 "Hg5 mi
5:20 AM63 °FRain. Passing clouds.3 mph94%29.83 "HgN/A
4:50 AM63 °FRain. Passing clouds.3 mph94%29.83 "HgN/A
4:20 AM63 °FPassing clouds.3 mph94%29.83 "HgN/A
3:50 AM63 °FPassing clouds.5 mph94%29.83 "HgN/A
3:20 AM63 °FSprinkles. Passing clouds.3 mph94%29.83 "HgN/A
2:50 AM63 °FOvercast.6 mph94%29.83 "HgN/A
2:20 AM63 °FSprinkles. Passing clouds.5 mph94%29.83 "HgN/A
1:50 AM63 °FSprinkles. Passing clouds.7 mph94%29.83 "HgN/A
1:20 AM61 °FPartly cloudy.7 mph100%29.83 "HgN/A
12:50 AM61 °FRain. Passing clouds.6 mph100%29.83 "Hg6 mi
12:20 AM63 °FRain. Partly cloudy.6 mph94%29.86 "HgN/A
11:50 PM
Jul 21
63 °FHeavy rain. Partly cloudy.6 mph94%29.86 "Hg6 mi
11:20 PM63 °FHeavy rain. Partly cloudy.9 mph94%29.86 "HgN/A
10:50 PM63 °FRain showers. Passing clouds.10 mph94%29.86 "Hg5 mi
10:20 PM63 °FSprinkles. Partly cloudy.10 mph94%29.86 "HgN/A
9:50 PM63 °FSprinkles. Broken clouds.12 mph94%29.86 "HgN/A
9:20 PM63 °FRain showers. Broken clouds.13 mph94%29.86 "HgN/A
8:50 PM63 °FSprinkles. Partly sunny.9 mph94%29.86 "HgN/A
8:20 PM64 °FThundershowers. Partly sunny.12 mph88%29.83 "HgN/A
7:50 PM64 °FSprinkles. Partly sunny.10 mph94%29.83 "HgN/A
7:20 PM68 °FPartly sunny.13 mph78%29.83 "HgN/A
6:50 PM70 °FPartly sunny.13 mph73%29.83 "HgN/A
6:20 PM70 °FPartly sunny.14 mph73%29.80 "HgN/A
5:50 PM72 °FPartly sunny.15 mph73%29.83 "HgN/A
5:20 PM73 °FPartly sunny.14 mph69%29.80 "HgN/A
4:50 PM72 °FPartly sunny.15 mph69%29.80 "HgN/A
4:20 PM73 °FPartly sunny.13 mph69%29.80 "HgN/A
3:50 PM73 °FPartly sunny.13 mph69%29.80 "HgN/A
3:20 PM73 °FBroken clouds.10 mph69%29.83 "HgN/A
2:50 PM73 °FBroken clouds.13 mph69%29.83 "HgN/A
2:20 PM73 °FBroken clouds.14 mph69%29.83 "HgN/A
1:50 PM73 °FPartly sunny.15 mph69%29.86 "HgN/A
1:20 PM73 °FPartly sunny.13 mph69%29.86 "HgN/A
12:50 PM73 °FPartly sunny.12 mph69%29.86 "HgN/A
12:20 PM73 °FBroken clouds.13 mph69%29.86 "HgN/A
11:50 AM73 °FPartly sunny.10 mph69%29.83 "HgN/A
11:20 AM73 °FPartly sunny.10 mph69%29.83 "HgN/A
10:50 AM72 °FBroken clouds.8 mph69%29.83 "HgN/A
10:20 AM72 °FBroken clouds.8 mph69%29.83 "HgN/A
9:50 AM72 °FScattered clouds.14 mph69%29.83 "HgN/A
9:20 AM70 °FPartly sunny.10 mph78%29.83 "HgN/A
Weather by CustomWeather, © 2014

See weather overviewHow to use our weather pages